Location: Chiroubles
(46.1812°N, 4.6660°E)
Time: 11:01:35
(UTC+00:00)

SR - Pass Details

Date: 28 November 2020
Orbit: 575 x 880 km, 66.7° (Epoch: 20 January)

Event Time Altitude Azimuth Distance (km) Brightness Sun altitude
Rises 16:59:30 0° 167° (SSE) 2,789 ? -10.4°
Reaches altitude 10° 17:02:20 10° 147° (SSE) 1,921 ? -10.8°
Maximum altitude 17:05:04 17° 107° (ESE) 1,567 ? -11.3°
Enters shadow 17:06:16 15° 87° (E) 1,665 ? -11.5°
